Regional Weather Roundup
Issued by NWS Newport/Morehead, NC

Current Version | Previous Version | Graphics & Text | Print | Product List | Glossary Off
Versions: 1 2 3 4 5 6 7 8 9 10 11 12 13 14 15 16 17 18 19 20 21 22 23 24 25 26 27 28 29 30 31 32 33 34 35 36 37

000
ASUS42 KMHX 241610
RWRMHX
WEATHER ROUNDUP FOR EASTERN NORTH CAROLINA
NATIONAL WEATHER SERVICE NEWPORT/MOREHEAD CITY NC
1200 PM EDT THU APR 24 2014

NOTE: "FAIR" INDICATES FEW OR NO CLOUDS BELOW 12,000 FEET
WITH NO SIGNIFICANT WEATHER AND/OR OBSTRUCTIONS TO VISIBILITY

NCZ015>017-031-032-045>047-102-103-241700-
NORTH COAST

CITY           SKY/WX    TMP DP  RH WIND       PRES   REMARKS
EDENTON        SUNNY     61  28  28 NW6       30.13F
ELIZABETH CITY SUNNY     61  26  26 NW9       30.12F
KITTY HAWK     SUNNY     54  36  50 N9G17     30.11F
MANTEO         SUNNY     55  36  48 N5        30.13S

$$

NCZ045>047-081-094-103-104-241700-
CENTRAL COAST

CITY           SKY/WX    TMP DP  RH WIND       PRES   REMARKS
FRISCO         SUNNY     59  38  45 NE7       30.13S
SWANQUARTER      N/A     61 N/A N/A NE6       30.09S

$$

NCZ095-097-098-100-101-241700-
SOUTHERN COAST

CITY           SKY/WX    TMP DP  RH WIND       PRES   REMARKS
BEAUFORT       SUNNY     63  32  31 E9        30.13S
CEDAR ISLAND     N/A     57 N/A N/A NW7       30.18S
JACKSONVILLE   SUNNY     63  30  28 N13       30.13F
NEWPORT          N/A     63  39  42 NW5         N/A
PINEY ISLAND   SUNNY     59  35  40 N7        30.14S
WILMINGTON     SUNNY     67  35  30 E5        30.12F


$$

NCZ011>013-027>030-043-044-078>080-089-090>093-098-241700-
COASTAL PLAIN

CITY           SKY/WX    TMP DP  RH WIND       PRES   REMARKS
AHOSKIE        SUNNY     60  28  29 N3        30.13F
CLINTON        SUNNY     62  33  33 CALM      30.15F
ELIZABETHTOWN  SUNNY     64  33  32 CALM      30.13F
GOLDSBORO      MOSUNNY   61  30  31 VRB5      30.14S
GREENVILLE     SUNNY     61  28  29 NE6       30.16S
HAVELOCK       MOSUNNY   63  35  35 N3        30.14F
KENANSVILLE    SUNNY     61  29  29 N3        30.15F
KINSTON        SUNNY     61  28  29 NE3       30.16S
NEW BERN       SUNNY     63  32  31 VRB5      30.15F
RICHLANDS      SUNNY     63  57  82 NW8       30.14F
ROANOKE RAPIDS NOT AVBL
ROCKY MOUNT    SUNNY     61  28  28 CALM      30.15F
WASHINGTON     SUNNY     60  15  17 N3        30.15S
WHITEVILLE     SUNNY     66  37  34 E7        30.12F

$$

AMZ130-135-150-152-154-156-158-170-250-252-270-ANZ085-086-088-633-658-670-241700-
MARINE OBSERVATIONS

STATION/POSITION TIME  TEMP    WIND        PRES    WAVE   SWELL
                       AIR SEA DIR/SP/G            HT/PER HT/PER
                 (UTC) (F)     (DEG/KT/KT) (MB)    (FT/S) (FT/S)
CHESAPEAKE LIGHT 1500   50     330/ 14/ 15 1020.4
BUOY 44014       1600   49 49  320/ 12/ 14 1019.0    5/ 6   3/ 6
DUCK             1600   50 53   10/ 12/ 14 1019.1
2E DUCK          1600      52                N/A     3/ 6
OREGON INLET     1600   53 54  360/ 10/ 13 1020.2
BUOY 44095       1600      49                N/A     5/ 7   2/11
HATTERAS CG      1600   54 60  330/  7/  8 1020.6
DIAMOND BUOY     NOT AVBL
CAPE LOOKOUT     1500   55      40/ 12/ 13 1020.5
BEAUFORT LAB     1600   59 62  360/  7/ 10 1019.8
30 SE NEW RIVER  1600   58 67   40/ 12/ 16 1020.8    4/ 8   3/ 8
5 SE WRIGHTSVILL 1500   58 60   60/ 16/ 17 1020.4
FRYING PAN BUOY  1600   63 68   60/ 17/ 19 1019.1    5/ 5
BUOY 41001       NOT AVBL
BUOY 41002       NOT AVBL
BUOY 41004       1600   67 71   50/ 16/ 19 1017.6    4/ 5   2/ 8

$$



USA.gov is the U.S. government's official web portal to all federal, state and local government web resources and services.